Weather History for Saginaw, MI

Change the Weather History Date:

Wednesday, November 23, 2011

  Actual Average Record
Temperature  
Mean Temperature 40 °F 36 °F  
Max Temperature 48 °F 42 °F 64 °F (1999)
Min Temperature 32 °F 29 °F 12 °F (2007)
Degree Days  
Heating Degree Days 25    
Month to date heating degree days  
Since 1 July heating degree days  
Cooling Degree Days 0    
Month to date cooling degree days  
Year to date cooling degree days  
Moisture  
Dew Point 32 °F    
Average Humidity 78    
Maximum Humidity 93    
Minimum Humidity 50    
Precipitation  
Precipitation 0.00 in 0.09 in 0.85 in (2014)
Month to date precipitation 2.14  
Year to date precipitation 29.12  
Snow  
Snow 0.00 in - - ()
Month to date snowfall  
Since 1 July snowfall  
Since 1 September snowfall  
Snow Depth -    
Sea Level Pressure  
Sea Level Pressure 30.10 in    
Wind  
Wind Speed 9 mph (West)    
Max Wind Speed 20 mph    
Max Gust Speed 24 mph    
Visibility 10 miles    
Events      
T = Trace of Precipitation, MM = Missing Value Source: NWS Daily Summary

Daily Weather History Graph

Daily Weather History Graph

Search for Another Location

Airport:

Trip Planner

Search our weather history database for the weather conditions in past years. The results will help you decide how hot, cold, wet, or windy it might be!

Date:

Astronomy

Nov. 23, 2011 Rise Set
Actual Time 7:39 AM EST 5:05 PM EST
Civil Twilight 7:08 AM EST 5:36 PM EST
Nautical Twilight 6:33 AM EST 6:11 PM EST
Astronomical Twilight 5:59 AM EST 6:45 PM EST
Moon 5:41 AM EST (11/23) 3:46 PM EST (11/23)
Length of Visible Light 10h 28m
Length of Day
9h 25m
Waning Crescent, 4% of the Moon is Illuminated
Nov 23
Waning Crescent
Nov 25
New
Dec 2
First Quarter
Dec 10
Full
Dec 17
Last Quarter

Hourly Weather History & Observations

Time (EST) Temp. Windchill Dew Point Humidity Pressure Visibility Wind Dir Wind Speed Gust Speed Precip Events Conditions
12:53 AM 37.4 °F 30.3 °F 33.8 °F 87% 29.91 in 10.0 mi North 10.4 mph - N/A   Clear
1:53 AM 36.0 °F 28.5 °F 32.0 °F 86% 29.94 in 10.0 mi North 10.4 mph - N/A   Clear
2:53 AM 35.1 °F 27.9 °F 32.0 °F 89% 29.96 in 10.0 mi NNW 9.2 mph - N/A   Clear
3:53 AM 33.8 °F 25.8 °F 30.2 °F 87% 29.97 in 10.0 mi NNW 10.4 mph - N/A   Clear
4:53 AM 33.1 °F 24.9 °F 30.0 °F 89% 30.01 in 10.0 mi NNW 10.4 mph - N/A   Clear
5:53 AM 33.8 °F 27.0 °F 30.2 °F 87% 30.01 in 10.0 mi NW 8.1 mph - N/A   Clear
7:53 AM 32.0 °F 25.6 °F 28.9 °F 88% 30.10 in 10.0 mi NW 6.9 mph - N/A   Clear
8:53 AM 33.1 °F 27.7 °F 30.9 °F 92% 30.12 in 10.0 mi WNW 5.8 mph - N/A   Clear
9:53 AM 37.0 °F 32.4 °F 33.1 °F 86% 30.14 in 10.0 mi WNW 5.8 mph - N/A   Clear
10:53 AM 42.1 °F - 34.0 °F 73% 30.15 in 10.0 mi Calm Calm - N/A   Clear
11:53 AM 43.0 °F - 34.0 °F 71% 30.15 in 10.0 mi Calm Calm - N/A   Clear
12:53 PM 46.0 °F 43.1 °F 33.1 °F 61% 30.14 in 10.0 mi West 5.8 mph - N/A   Clear
1:53 PM 48.0 °F - 32.0 °F 54% 30.14 in 10.0 mi Variable 5.8 mph - N/A   Clear
2:53 PM 48.2 °F - 30.2 °F 50% 30.12 in 10.0 mi WSW 10.4 mph - N/A   Clear
3:53 PM 48.9 °F - 32.0 °F 52% 30.13 in 10.0 mi SW 9.2 mph - N/A   Clear
4:53 PM 46.9 °F - 34.0 °F 61% 30.14 in 10.0 mi SW 9.2 mph - N/A   Clear
5:53 PM 44.1 °F 39.5 °F 33.1 °F 65% 30.14 in 10.0 mi SW 8.1 mph - N/A   Clear
6:53 PM 39.9 °F 33.9 °F 32.0 °F 73% 30.16 in 10.0 mi WSW 9.2 mph - N/A   Clear
7:53 PM 39.9 °F 33.4 °F 33.1 °F 77% 30.16 in 10.0 mi WSW 10.4 mph - N/A   Clear
8:53 PM 37.9 °F 30.5 °F 33.1 °F 83% 30.16 in 10.0 mi WSW 11.5 mph - N/A   Clear
9:53 PM 35.6 °F 26.6 °F 33.8 °F 93% 30.15 in 10.0 mi WSW 13.8 mph - N/A   Clear
10:31 PM 37.4 °F 27.8 °F 33.8 °F 87% 30.15 in 9.0 mi West 17.3 mph - N/A   Mostly Cloudy
10:44 PM 37.4 °F 27.5 °F 33.8 °F 87% 30.15 in 9.0 mi West 18.4 mph 24.2 mph N/A   Overcast
10:53 PM 37.0 °F 26.7 °F 34.0 °F 89% 30.17 in 9.0 mi West 19.6 mph - N/A   Overcast
11:53 PM 37.0 °F 28.9 °F 34.0 °F 89% 30.18 in 7.0 mi WSW 12.7 mph - N/A   Overcast